Location: Newark
(34.9500°N, 139.9667°E)
Time: 23:49:33
(UTC+00:00)

Courier 1B Rocket - All Passes

Search period start: 12 December 2019 00:00
Search period end: 22 December 2019 00:00
Orbit: 920 x 1202 km, 28.2° (Epoch: 12 December)

Date Brightness Start Highest point End Pass type
(mag) Time Alt. Az. Time Alt. Az. Time Alt. Az.
12 Dec - 01:08:17 10° WSW 01:13:23 25° SSW 01:18:23 10° SSE daylight
12 Dec - 18:28:05 10° SSW 18:33:32 22° SSE 18:38:43 10° ESE visible
12 Dec - 20:19:56 10° WSW 20:26:33 41° S 20:32:44 10° E visible
12 Dec - 22:13:09 10° WSW 22:19:40 48° S 22:25:47 10° ESE daylight
13 Dec - 00:06:54 10° WSW 00:12:36 32° SSW 00:18:06 10° SE daylight
13 Dec - 02:02:30 10° SW 02:05:11 13° SSW 02:07:51 10° S daylight
13 Dec - 17:28:06 10° S 17:32:34 17° SSE 17:36:55 10° ESE visible
13 Dec - 19:18:59 10° SW 19:25:33 36° SSE 19:31:43 10° E visible
13 Dec - 21:11:57 10° WSW 21:18:42 49° S 21:24:59 10° ESE visible
13 Dec - 23:05:34 10° W 23:11:45 39° SSW 23:17:37 10° SE daylight
14 Dec - 01:00:08 10° WSW 01:04:27 19° SSW 01:08:41 10° SSE daylight
14 Dec - 16:29:10 10° S 16:31:37 12° SSE 16:34:02 10° SE visible
14 Dec - 18:18:14 10° SW 18:24:33 30° SSE 18:30:33 10° ESE visible
14 Dec - 20:10:47 10° WSW 20:17:41 47° S 20:24:08 10° ESE visible
14 Dec - 22:04:17 10° WSW 22:10:51 45° S 22:17:00 10° ESE daylight
14 Dec - 23:58:24 10° WSW 00:03:42 26° SSW 00:08:48 10° SSE daylight
15 Dec - 17:17:43 10° SSW 17:23:33 24° SSE 17:29:08 10° ESE visible
15 Dec - 19:09:40 10° WSW 19:16:39 43° S 19:23:11 10° E visible
15 Dec - 21:03:00 10° WSW 21:09:52 49° S 21:16:16 10° ESE visible
15 Dec - 22:56:53 10° W 23:02:54 33° SSW 23:08:33 10° SE daylight
16 Dec - 00:52:40 10° SW 00:55:28 13° SSW 00:58:13 10° S daylight
16 Dec - 16:17:40 10° SSW 16:22:33 18° SSE 16:27:19 10° ESE night (unlit)
16 Dec - 18:08:42 10° SW 18:15:35 37° SSE 18:22:06 10° E visible
16 Dec - 20:01:44 10° WSW 20:08:50 50° S 20:15:27 10° ESE visible
16 Dec - 21:55:28 10° W 22:01:59 40° SSW 22:08:05 10° SE daylight
16 Dec - 23:50:10 10° WSW 23:54:44 19° SSW 23:59:07 10° SSE daylight
17 Dec - 15:18:33 10° S 15:21:34 13° SSE 15:24:34 10° SE night (unlit)
17 Dec - 17:07:55 10° SW 17:14:31 31° SSE 17:20:52 10° ESE visible
17 Dec - 19:00:31 10° WSW 19:07:45 48° S 19:14:32 10° ESE visible
17 Dec - 20:54:06 10° W 21:01:01 46° S 21:07:27 10° ESE visible
17 Dec - 22:48:20 10° WSW 22:53:56 26° SSW 22:59:15 10° SSE daylight
18 Dec - 16:07:24 10° SSW 16:13:28 25° SSE 16:19:24 10° ESE night (unlit)
18 Dec - 17:59:24 10° WSW 18:06:38 44° S 18:13:30 10° E visible
18 Dec - 19:52:46 10° WSW 19:59:58 50° S 20:06:41 10° ESE visible
18 Dec - 21:46:44 10° W 21:53:04 34° SSW 21:59:01 10° SE daylight
18 Dec - 23:42:35 10° WSW 23:45:42 14° SSW 23:48:44 10° S daylight
19 Dec - 15:07:21 10° SSW 15:12:27 19° SSE 15:17:31 10° ESE night (unlit)
19 Dec - 16:58:25 10° SW 17:05:31 39° SSE 17:12:22 10° E visible
19 Dec - 18:51:29 10° WSW 18:58:51 51° S 19:05:48 10° ESE visible
19 Dec - 20:45:16 10° W 20:52:07 41° SSW 20:58:32 10° SE visible
19 Dec - 22:40:03 10° WSW 22:44:55 20° SSW 22:49:36 10° SSE daylight
20 Dec - 14:08:12 10° S 14:11:28 13° SSE 14:14:45 10° SE night (unlit)
20 Dec - 15:57:39 10° SW 16:04:25 32° SSE 16:11:03 10° E night (unlit)
20 Dec - 17:50:16 10° WSW 17:57:42 50° S 18:04:49 10° ESE visible
20 Dec - 19:43:52 10° W 19:51:04 47° S 19:57:50 10° ESE visible
20 Dec - 21:38:08 10° WSW 21:44:05 27° SSW 21:49:42 10° SSE daylight
21 Dec - 14:57:12 10° SSW 15:03:21 26° SSE 15:09:29 10° ESE night (unlit)
21 Dec - 16:49:09 10° WSW 16:56:32 46° S 17:03:42 10° E visible
21 Dec - 18:42:31 10° WSW 18:49:57 51° S 18:57:00 10° ESE visible
21 Dec - 20:36:30 10° W 20:43:09 35° SSW 20:49:26 10° SE visible
21 Dec - 22:32:20 10° WSW 22:35:51 14° SSW 22:39:16 10° S daylight
